• In Deutschland
  • Länderverzeichnis
  • Für 7 Tage
  • Wassertemperatur
  • Satellitenkarten
  • Wetterkarte
  • Widgets
  • user-avatar
    Anmelden

    Stündliche Wetter Bamberg

    Heute, 20 Oktober, Freitag

    Zeit Temperatur Niederschläge Wind Luftdruck Luftfeuchtigkeit
    00:00 +12°C° 0 mm 1 m/S 734 mmHg 86%
    01:00 +11°C° 0 mm 1 m/S 734 mmHg 85%
    02:00 +11°C° 0 mm 1 m/S 734 mmHg 84%
    03:00 +11°C° 0 mm 1 m/S 734 mmHg 83%
    04:00 +11°C° 0 mm 1 m/S 734 mmHg 82%
    05:00 +11°C° 0 mm 1 m/S 734 mmHg 82%
    06:00 +11°C° 0 mm 1 m/S 734 mmHg 81%
    07:00 +9°C° 0 mm 2 m/S 734 mmHg 81%
    08:00 +12°C° 0 mm 2 m/S 734 mmHg 76%
    09:00 +14°C° 0 mm 2 m/S 735 mmHg 71%
    10:00 +15°C° 0 mm 2 m/S 735 mmHg 65%
    11:00 +16°C° 0 mm 2 m/S 735 mmHg 65%
    12:00 +17°C° 0 mm 2 m/S 735 mmHg 64%
    13:00 +17°C° 0 mm 3 m/S 736 mmHg 64%
    14:00 +17°C° 0,1 mm 2 m/S 735 mmHg 69%
    15:00 +16°C° 0,1 mm 2 m/S 735 mmHg 74%
    16:00 +16°C° 0,1 mm 2 m/S 735 mmHg 78%
    17:00 +15°C° 0 mm 2 m/S 736 mmHg 82%
    18:00 +14°C° 0 mm 2 m/S 736 mmHg 85%
    19:00 +13°C° 0 mm 2 m/S 736 mmHg 88%
    20:00 +13°C° 0,1 mm 2 m/S 736 mmHg 89%
    21:00 +13°C° 0,1 mm 2 m/S 736 mmHg 91%
    22:00 +12°C° 0,1 mm 2 m/S 736 mmHg 92%
    23:00 +12°C° 0 mm 2 m/S 736 mmHg 93%

    Morgen, 21 Oktober, Samstag

    Zeit Temperatur Niederschläge Wind Luftdruck Luftfeuchtigkeit
    00:00 +12°C° 0 mm 1 m/S 736 mmHg 94%
    01:00 +12°C° 0 mm 1 m/S 736 mmHg 94%
    02:00 +12°C° 0 mm 1 m/S 736 mmHg 94%
    03:00 +12°C° 0 mm 1 m/S 736 mmHg 94%
    04:00 +12°C° 0 mm 1 m/S 736 mmHg 93%
    05:00 +13°C° 0 mm 2 m/S 736 mmHg 92%
    06:00 +13°C° 0 mm 2 m/S 736 mmHg 90%
    07:00 +13°C° 0 mm 2 m/S 735 mmHg 89%
    08:00 +13°C° 0 mm 3 m/S 735 mmHg 85%
    09:00 +14°C° 0 mm 3 m/S 735 mmHg 80%
    10:00 +16°C° 0 mm 3 m/S 735 mmHg 76%
    11:00 +17°C° 0 mm 4 m/S 735 mmHg 72%
    12:00 +18°C° 0 mm 4 m/S 735 mmHg 67%
    13:00 +19°C° 0 mm 4 m/S 735 mmHg 63%
    14:00 +19°C° 0 mm 3 m/S 734 mmHg 66%
    15:00 +19°C° 0 mm 3 m/S 734 mmHg 69%
    16:00 +18°C° 0 mm 2 m/S 734 mmHg 72%
    17:00 +17°C° 0,4 mm 2 m/S 734 mmHg 78%
    18:00 +16°C° 0,4 mm 3 m/S 734 mmHg 84%
    19:00 +14°C° 0,4 mm 3 m/S 735 mmHg 90%
    20:00 +13°C° 0,7 mm 3 m/S 735 mmHg 90%
    21:00 +13°C° 0,7 mm 4 m/S 735 mmHg 90%
    22:00 +12°C° 0,7 mm 4 m/S 736 mmHg 90%
    23:00 +12°C° 0,5 mm 4 m/S 736 mmHg 91%

    übermorgen, 22 Oktober, Sonntag

    Zeit Temperatur Niederschläge Wind Luftdruck Luftfeuchtigkeit
    00:00 +11°C° 0,5 mm 4 m/S 736 mmHg 91%
    01:00 +10°C° 0,5 mm 4 m/S 737 mmHg 92%
    02:00 +10°C° 0 mm 3 m/S 737 mmHg 92%
    03:00 +10°C° 0 mm 3 m/S 736 mmHg 92%
    04:00 +9°C° 0 mm 3 m/S 736 mmHg 92%
    05:00 +9°C° 0 mm 3 m/S 736 mmHg 93%
    06:00 +9°C° 0 mm 3 m/S 736 mmHg 93%
    07:00 +8°C° 0 mm 3 m/S 736 mmHg 93%
    08:00 +9°C° 0 mm 3 m/S 736 mmHg 89%
    09:00 +8°C° 0 mm 4 m/S 736 mmHg 85%
    10:00 +10°C° 0 mm 4 m/S 736 mmHg 81%
    11:00 +10°C° 0,1 mm 4 m/S 736 mmHg 79%
    12:00 +10°C° 0,1 mm 4 m/S 736 mmHg 78%
    13:00 +10°C° 0,1 mm 4 m/S 736 mmHg 76%
    14:00 +10°C° 0,1 mm 4 m/S 736 mmHg 76%
    15:00 +10°C° 0,1 mm 3 m/S 736 mmHg 75%
    16:00 +10°C° 0,1 mm 3 m/S 736 mmHg 75%
    17:00 +9°C° 0 mm 3 m/S 736 mmHg 79%
    18:00 +8°C° 0 mm 2 m/S 736 mmHg 82%
    19:00 +7°C° 0 mm 2 m/S 736 mmHg 86%
    20:00 +7°C° 0 mm 2 m/S 736 mmHg 86%
    21:00 +7°C° 0 mm 3 m/S 736 mmHg 86%
    22:00 +7°C° 0 mm 3 m/S 736 mmHg 87%
    23:00 +5°C° 0 mm 3 m/S 736 mmHg 88%

    23 Oktober, Montag

    Zeit Temperatur Niederschläge Wind Luftdruck Luftfeuchtigkeit
    00:00 +5°C° 0 mm 3 m/S 736 mmHg 89%
    01:00 +5°C° 0 mm 3 m/S 736 mmHg 90%
    02:00 +5°C° 0 mm 3 m/S 736 mmHg 92%
    03:00 +5°C° 0 mm 2 m/S 736 mmHg 93%
    04:00 +5°C° 0 mm 2 m/S 736 mmHg 94%
    05:00 +6°C° 0,1 mm 2 m/S 736 mmHg 93%
    06:00 +6°C° 0,1 mm 2 m/S 737 mmHg 93%
    07:00 +6°C° 0,1 mm 2 m/S 737 mmHg 92%
    08:00 +7°C° 0 mm 2 m/S 737 mmHg 90%
    09:00 +8°C° 0 mm 2 m/S 737 mmHg 88%
    10:00 +9°C° 0 mm 2 m/S 737 mmHg 86%
    11:00 +9°C° 0,1 mm 3 m/S 737 mmHg 86%
    12:00 +9°C° 0,1 mm 3 m/S 738 mmHg 85%
    13:00 +10°C° 0,1 mm 3 m/S 738 mmHg 85%
    14:00 +10°C° 0,2 mm 3 m/S 738 mmHg 86%
    15:00 +10°C° 0,2 mm 3 m/S 738 mmHg 87%
    16:00 +10°C° 0,2 mm 2 m/S 739 mmHg 88%
    17:00 +9°C° 0 mm 2 m/S 739 mmHg 90%
    18:00 +8°C° 0 mm 2 m/S 739 mmHg 92%
    19:00 +8°C° 0 mm 2 m/S 740 mmHg 94%
    20:00 +7°C° 0 mm 2 m/S 740 mmHg 95%
    21:00 +7°C° 0 mm 2 m/S 740 mmHg 95%
    22:00 +6°C° 0 mm 2 m/S 740 mmHg 96%
    23:00 +7°C° 0 mm 1 m/S 740 mmHg 96%

    24 Oktober, Dienstag

    Zeit Temperatur Niederschläge Wind Luftdruck Luftfeuchtigkeit
    00:00 +7°C° 0 mm 1 m/S 740 mmHg 97%
    01:00 +7°C° 0 mm 1 m/S 740 mmHg 97%
    02:00 +8°C° 0,1 mm 1 m/S 741 mmHg 97%
    03:00 +8°C° 0,1 mm 1 m/S 741 mmHg 96%
    04:00 +9°C° 0,1 mm 1 m/S 741 mmHg 96%
    05:00 +9°C° 0 mm 1 m/S 741 mmHg 96%
    06:00 +9°C° 0 mm 1 m/S 741 mmHg 96%
    07:00 +8°C° 0 mm 2 m/S 741 mmHg 96%
    08:00 +9°C° 0,1 mm 2 m/S 741 mmHg 95%
    09:00 +9°C° 0,1 mm 2 m/S 741 mmHg 94%
    10:00 +10°C° 0,1 mm 2 m/S 741 mmHg 93%
    11:00 +10°C° 0,3 mm 2 m/S 741 mmHg 93%
    12:00 +11°C° 0,3 mm 1 m/S 741 mmHg 94%
    13:00 +11°C° 0,3 mm 1 m/S 741 mmHg 94%
    14:00 +11°C° 0,3 mm 1 m/S 741 mmHg 95%
    15:00 +12°C° 0,3 mm 1 m/S 741 mmHg 95%
    16:00 +12°C° 0,3 mm 1 m/S 741 mmHg 96%
    17:00 +12°C° 0,1 mm 1 m/S 742 mmHg 96%
    18:00 +12°C° 0,1 mm 1 m/S 742 mmHg 97%
    19:00 +11°C° 0,1 mm 1 m/S 742 mmHg 97%
    20:00 +10°C° 0 mm 0 m/S 743 mmHg 97%
    21:00 +10°C° 0 mm 0 m/S 743 mmHg 97%
    22:00 +10°C° 0 mm 0 m/S 743 mmHg 97%
    23:00 +10°C° 0 mm 0 m/S 743 mmHg 97%

    25 Oktober, Mittwoch

    Zeit Temperatur Niederschläge Wind Luftdruck Luftfeuchtigkeit
    00:00 +9°C° 0 mm 0 m/S 743 mmHg 97%
    01:00 +9°C° 0 mm 0 m/S 743 mmHg 97%
    02:00 +9°C° 0 mm 0 m/S 744 mmHg 97%
    03:00 +9°C° 0 mm 0 m/S 744 mmHg 97%
    04:00 +10°C° 0 mm 0 m/S 744 mmHg 97%
    05:00 +10°C° 0 mm 0 m/S 744 mmHg 97%
    06:00 +11°C° 0 mm 1 m/S 744 mmHg 97%
    07:00 +11°C° 0 mm 1 m/S 744 mmHg 97%
    08:00 +12°C° 0 mm 1 m/S 745 mmHg 94%
    09:00 +13°C° 0 mm 1 m/S 745 mmHg 92%
    10:00 +13°C° 0 mm 1 m/S 745 mmHg 90%
    11:00 +14°C° 0 mm 1 m/S 745 mmHg 85%
    12:00 +15°C° 0 mm 1 m/S 745 mmHg 81%
    13:00 +16°C° 0 mm 1 m/S 745 mmHg 77%
    14:00 +16°C° 0 mm 1 m/S 745 mmHg 78%
    15:00 +15°C° 0 mm 1 m/S 745 mmHg 79%
    16:00 +15°C° 0 mm 1 m/S 745 mmHg 81%
    17:00 +14°C° 0 mm 1 m/S 745 mmHg 84%
    18:00 +13°C° 0 mm 1 m/S 745 mmHg 88%
    19:00 +11°C° 0 mm 1 m/S 745 mmHg 92%
    20:00 +11°C° 0 mm 1 m/S 746 mmHg 92%
    21:00 +11°C° 0 mm 1 m/S 746 mmHg 93%
    22:00 +10°C° 0 mm 1 m/S 746 mmHg 93%
    23:00 +10°C° 0 mm 1 m/S 746 mmHg 93%
    Mehr zeigen